VERONIKA

Last updated on Fri Aug 15 2025 00:03:48 GMT+0000 (Coordinated Universal Time)

1 58261U 23174F 25226.37941510 .06389820 25010-5 11730-2 0 9999 2 58261 97.3950 317.9599 0015267 265.3450 94.6101 16.32006270 99103

Satellite not in orbit